Home > Weather > Portimão > Past weeks

Flag for Portugal Weather for the Past 2 Weeks in Portimão, Portugal

Now
68 °F

Clear.


Feels Like: 68 °F
Forecast: 56 / 76 °F
Wind: 12 mph from North

Location: Faro / Aeroporto

Current Time: Apr 30, 2016 at 10:24:07 PM

Latest Report: Apr 30, 2016 at 10:00 PM


Visibility: 10 mi

Pressure: 30.09 "Hg

Humidity: 60%

Dew Point: 54 °F

Location of PortimãoLocation

Historic Weather in Portimão — Graph

°F

Portimão Temperature Yesterday

Maximum temperature yesterday: 70 °F (at 2:30 PM)
Minimum temperature yesterday: 59 °F (at 1:00 AM)
Average temperature yesterday: 65 °F

High & Low Weather Summary for the Past Weeks

 TemperatureHumidityPressure
High77 °F (Apr 25, 2:00 PM)100% (Apr 15, 9:30 PM)30.18 "Hg (Apr 15, 9:30 PM)
Low54 °F (Apr 18, 6:00 AM)31% (Apr 30, 8:30 PM)29.80 "Hg (Apr 19, 3:30 AM)
Average63 °F76%29.97 "Hg
* Reported Apr 15 9:30 PM — Apr 30 9:00 PM, Portimão, Weather by CustomWeather, © 2016

Note: Actual official high and low records may vary slightly from our data, if they occured in-between our weather recording intervals... More about our weather records

Advertising

Portimão Weather History for the Previous 24 Hours

Scroll right to see more
 ConditionsComfort  
Time TempWeatherWind HumidityBarometerVisibility
9:00 PM
Sat, Apr 30
72 °FSunny.10 mph36%30.07 "Hg10 mi
8:30 PM73 °FSunny.8 mph31%30.07 "Hg10 mi
8:00 PM73 °FSunny.6 mph47%30.07 "Hg10 mi
7:30 PM70 °FSunny.9 mph60%30.07 "Hg10 mi
7:00 PM70 °FSunny.13 mph64%30.07 "Hg10 mi
6:30 PM70 °FSunny.9 mph64%30.07 "Hg10 mi
6:00 PM70 °FPassing clouds.12 mph64%30.07 "HgN/A
5:30 PM72 °FPassing clouds.9 mph61%30.07 "HgN/A
5:00 PM70 °FPassing clouds.10 mph69%30.07 "HgN/A
4:30 PM72 °FPassing clouds.10 mph61%30.07 "HgN/A
4:00 PM70 °FPassing clouds.12 mph69%30.07 "HgN/A
3:30 PM72 °FPassing clouds.12 mph57%30.09 "HgN/A
3:00 PM72 °FPassing clouds.13 mph53%30.09 "HgN/A
2:30 PM70 °FPassing clouds.12 mph60%30.09 "HgN/A
2:00 PM72 °FPassing clouds.12 mph57%30.09 "HgN/A
1:30 PM72 °FPassing clouds.9 mph53%30.09 "HgN/A
1:00 PM72 °FPassing clouds.9 mph53%30.09 "HgN/A
12:30 PM70 °FPassing clouds.8 mph57%30.09 "HgN/A
12:00 PM70 °FPassing clouds.7 mph60%30.09 "HgN/A
11:30 AM70 °FSunny.8 mph60%30.09 "Hg10 mi
11:00 AM68 °FSunny.7 mph64%30.09 "Hg10 mi
10:30 AM68 °FSunny.7 mph64%30.09 "Hg10 mi
10:00 AM70 °FPassing clouds.6 mph60%30.09 "HgN/A
9:30 AM68 °FPassing clouds.5 mph64%30.07 "HgN/A
9:00 AM66 °FSunny.2 mph68%30.07 "Hg10 mi
8:30 AM63 °FSunny.No wind73%30.07 "Hg10 mi
8:00 AM59 °FPassing clouds.3 mph82%30.07 "HgN/A
7:30 AM59 °FClear.No wind82%30.04 "Hg10 mi
7:00 AM57 °FPassing clouds.3 mph88%30.04 "HgN/A
6:30 AM57 °FPassing clouds.3 mph88%30.04 "HgN/A
6:00 AM59 °FClear.6 mph82%30.04 "Hg10 mi
5:30 AM63 °FClear.7 mph73%30.04 "Hg10 mi
5:00 AM63 °FClear.6 mph73%30.04 "Hg10 mi
4:30 AM63 °FClear.8 mph73%30.04 "Hg10 mi
4:00 AM63 °FClear.6 mph77%30.04 "Hg10 mi
3:30 AM64 °FPassing clouds.No wind73%30.04 "HgN/A
3:00 AM64 °FPassing clouds.5 mph78%30.04 "HgN/A
2:30 AM64 °FPassing clouds.No wind83%30.04 "HgN/A
2:00 AM64 °FPassing clouds.2 mph83%30.04 "HgN/A
1:30 AM64 °FPassing clouds.3 mph83%30.04 "HgN/A
12:30 AM64 °FPassing clouds.6 mph83%30.04 "HgN/A
12:00 AM64 °FPassing clouds.3 mph88%30.04 "HgN/A
11:30 PM
Fri, Apr 29
64 °FPassing clouds.5 mph88%30.01 "HgN/A
11:00 PM64 °FPassing clouds.5 mph88%30.01 "HgN/A
10:30 PM66 °FPassing clouds.5 mph78%30.01 "HgN/A
10:00 PM66 °FClear.5 mph78%30.01 "Hg10 mi
Weather by CustomWeather, © 2016

See weather overviewHow to use our weather pages